SCP
-0 0 -0 -0 -0 0 0 0 0 0 0 0 0 0 0 0 0 0 0 0 0 0 0 0 0 0 0 0 0 0 0 0 0 0 0 0 0 0 0 0 0 0 0
-0 -0 0 0 0 0 0 0 0 0 0 0 0 0 0 0 0 0 0 0 0 0 0 0 0 0 0 0 0 0 0 0 0 0 0 0 0 0 0 0 0 0 0
-0 -0 -0 0 -0 -0 0 0 0 0 0 0 0 0 0 0 0 0 0 0 0 0 0 0 0 0 0 0 0 0 0 0 0 0 0 0 0 0 0 0 0 0 0
0 -0 -0 -0 -0 -0 -0 0 0 0 0 0 0 0 0 0 0 0 0 0 0 0 0 0 0 0 0 0 0 0 0 0 0 0 0 0 0 0 0 0 0 0 0
0 0 -0 -0 -0 -0 -0 -0 0 0 0 0 0 0 0 0 0 0 0 0 0 0 0 0 0 0 0 0 0 0 0 0 0 0 0 0 0 0 0 0 0 0 0
0 0 0 0 -0 0 -0 -0 0 0 0 0 0 0 0 0 0 0 0 0 0 0 0 0 0 0 0 0 0 0 0 0 0 0 0 0 0 0 0 0 0 0 0
0 0 0 0 0 -0 0 0 0 -0 -0 0 0 0 0 0 0 0 0 0 0 0 0 0 0 0 0 0 0 0 0 0 0 0 0 0 0 0 0 0 0 0 0
0 0 -0 0 0 0 0 0 0 0 0 0 0 0 0 0 0 0 0 0 0 0 0 0 0 0 0 0 0 0 0 0 0 0 0 0 0 0 0 0 0 0 0
0 0 0 0 0 0 0 0 0 0 0 0 0 0 0 0 0 0 0 0 0 0 0 0 0 0 0 0 0 0 0 0 0 0 0 0 0 0 0 0 0 0 0
0 0 0 0 0 0 0 0 0 0 0 0 0 0 0 0 0 0 0 0 0 0 0 0 0 0 0 0 0 0 0 0 0 0 0 0 0 0 0 0 0 0 0
0 0 0 0 0 0 0 0 0 0 0 0 0 0 0 0 0 0 0 0 0 0 0 0 0 0 0 0 0 0 0 0 0 0 0 0 0 0 0 0 0 0 0
0 0 0 0 0 0 0 0 0 0 0 0 0 0 0 0 0 0 0 0 0 0 0 0 0 0 0 0 0 0 0 0 0 0 0 0 0 0 0 0 0 0 0
0 0 0 0 0 0 0 0 0 0 0 0 0 0 0 0 0 0 0 0 0 0 0 0 0 0 0 0 0 0 0 0 0 0 0 0 0 0 0 0 0 0 0
0 0 0 0 0 0 0 0 0 0 0 0 0 0 0 0 0 0 0 0 0 0 0 0 0 0 0 0 0 0 0 0 0 0 0 0 0 0 0 0 0 0 0
0 0 0 0 0 0 0 0 0 0 0 0 0 0 0 0 0 0 0 0 0 0 0 0 0 0 0 0 0 0 0 0 0 0 0 0 0 0 0 0 0 0 0
0 0 0 0 0 0 0 0 0 0 0 0 0 0 0 0 0 0 0 0 0 0 0 0 0 0 0 0 0 0 0 0 0 0 0 0 0 0 0 0 0 0 0
0 0 0 0 0 0 0 0 0 0 0 0 0 0 0 0 0 0 0 0 0 0 0 0 0 0 0 0 0 0 0 0 0 0 0 0 0 0 0 0 0 0 0
0 0 0 0 0 0 0 0 0 0 0 0 0 0 0 0 0 0 0 0 0 0 0 0 0 0 0 0 0 0 0 0 0 0 0 0 0 0 0 0 0 0 0
-0 -0 -0 -0 -0 -0 -0 -0 0 0 0 0 0 0 0 0 0 0 0 0 0 0 0 0 0 0 0 0 0 0 0 0 0 0 0 0 0 0 0 0 0 0 0
-0 -0 -0 -0 -0 0 0 0 0 0 0 0 0 0 0 0 0 0 0 0 0 0 0 0 0 0 0 0 0 0 0 0 0 0 0 0 0 0 0 0 0 0 0
0 0 -0 -0 0 0 0 0 0 0 0 0 0 0 0 0 0 0 0 0 0 0 0 0 0 0 0 0 0 0 0 0 0 0 0 0 0 0 0 0 0 0 0
0 0 0 0 0 -0 -0 0 0 0 0 0 0 0 0 0 0 0 0 0 0 0 0 0 0 0 0 0 0 0 0 0 0 0 0 0 0 0 0 0 0 0 0
0 0 0 0 0 0 0 0 0 0 0 0 0 0 0 0 0 0 0 0 0 0 0 0 0 0 0 0 0 0 0 0 0 0 0 0 0 0 0 0 0 0 0
0 0 0 0 0 0 0 0 0 0 0 0 0 0 0 0 0 0 0 0 0 0 0 0 0 0 0 0 0 0 0 0 0 0 0 0 0 0 0 0 0 0 0
0 0 -0 0 -0 -0 -0 0 0 0 0 0 0 0 0 0 0 0 0 0 0 0 0 0 0 0 0 0 0 0 0 0 0 0 0 0 0 0 0 0 0 0 0
0 0 0 0 0 0 -0 -0 -0 0 0 0 0 0 0 0 0 0 0 0 0 0 0 0 0 0 0 0 0 0 0 0 0 0 0 0 0 0 0 0 0 0 0
Wind_Speed_500mb
16 30 32 17 20 28 47 58 51 48 42 45 48 52 53 48 44 42 39 38 40 41 43 42 45 45 48 47 48 48 45 43 41 39 35 32 30 29 27 27 25 23 22
14 17 14 14 10 32 67 61 55 46 43 43 45 47 45 45 42 41 43 43 43 42 45 45 48 49 51 52 53 54 55 51 50 49 43 29 34 38 37 35 29 27 25
21 19 26 33 24 16 33 51 52 51 43 43 44 45 45 44 47 51 50 47 47 46 47 46 48 50 53 57 57 59 59 59 59 55 37 21 24 43 47 44 39 36 30
28 19 23 42 35 27 6 34 38 47 44 44 48 50 52 52 52 51 48 46 48 50 50 49 50 51 54 58 59 60 62 61 60 62 61 33 17 24 23 50 46 41 37
27 27 25 32 16 23 17 11 9 42 49 53 52 53 55 53 50 48 47 47 49 51 52 52 52 55 56 57 60 64 64 64 65 66 65 66 40 27 21 22 49 53 48
8 15 18 22 19 14 15 18 4 22 49 57 58 56 55 54 53 53 52 51 52 53 53 54 55 55 56 58 60 61 65 67 68 68 68 67 64 58 44 36 32 48 52
16 10 17 23 28 30 26 29 30 19 42 42 57 57 60 57 55 56 55 55 55 57 57 56 58 60 60 60 61 65 68 70 72 70 70 67 66 63 54 48 40 39 49
33 22 15 20 31 39 37 37 45 37 33 36 53 51 58 61 59 59 60 60 62 60 55 56 57 58 60 61 63 66 67 68 70 71 69 68 69 65 61 56 51 40 46
39 35 27 20 20 24 33 49 52 51 45 42 46 57 52 48 48 55 62 66 68 66 64 61 62 59 59 61 64 65 69 68 67 67 67 65 66 67 62 54 48 46 41
40 39 34 25 15 17 16 19 27 31 32 37 43 44 51 55 56 60 60 68 73 70 70 70 69 68 65 64 69 66 71 69 68 69 67 65 63 58 52 44 38 34 24
51 43 45 37 24 22 19 18 19 21 23 30 38 47 52 53 56 61 62 61 64 72 73 77 77 74 74 71 73 68 74 71 69 71 67 63 61 59 53 45 34 22 27
60 58 55 50 44 34 29 26 21 22 26 30 35 41 45 51 53 56 60 59 62 65 68 75 73 77 75 74 76 76 76 71 71 69 66 65 63 57 52 43 45 49 51
69 68 65 62 58 53 48 42 37 32 27 26 29 31 37 45 48 51 59 62 62 64 67 68 70 75 78 71 73 76 73 69 70 70 70 67 66 59 50 40 53 60 27
71 72 71 69 65 58 53 49 43 40 40 37 36 36 33 33 36 43 44 45 51 56 62 60 57 62 71 76 83 80 74 72 68 68 66 67 63 51 51 74 61 31 33
81 78 77 73 65 60 55 54 50 49 49 48 48 47 43 40 38 37 40 45 47 49 53 51 52 53 65 69 77 80 77 78 75 76 72 70 64 70 79 63 39 32 42
78 81 82 79 79 76 70 60 50 48 49 52 51 52 51 49 45 42 40 41 44 45 48 52 51 51 56 64 69 78 85 84 82 87 86 79 81 79 65 51 32 38 40
68 80 83 83 85 86 83 78 73 66 59 53 51 53 56 56 54 51 47 45 43 43 48 50 56 57 55 54 57 71 84 86 89 93 87 84 81 62 62 39 40 45 43
79 80 81 86 83 83 84 83 82 80 73 67 63 58 52 53 54 56 53 52 49 46 47 54 55 58 59 57 62 71 80 87 92 90 88 80 67 65 50 47 47 47 40
72 71 73 76 80 80 82 84 85 82 80 77 72 67 63 60 59 59 57 55 54 49 49 53 54 57 59 63 65 71 82 91 94 84 74 68 70 51 44 42 47 40 37
63 71 74 74 74 77 78 80 83 83 83 78 78 72 68 67 67 65 62 59 57 54 49 50 55 56 60 60 64 73 80 95 90 78 73 68 56 45 46 49 46 45 36
69 69 71 64 78 78 75 76 79 82 82 85 85 81 74 69 66 66 65 63 59 53 51 53 52 56 58 61 69 75 83 94 90 83 73 64 54 53 49 49 46 37 35
71 77 82 82 82 80 78 79 82 83 82 82 83 81 75 69 68 63 62 64 61 56 50 53 54 54 58 61 75 82 83 89 91 79 75 68 61 53 51 48 41 40 38
67 67 73 81 84 82 82 85 80 76 78 81 82 82 69 69 68 60 58 60 59 57 56 58 55 56 58 64 84 88 80 88 78 83 71 59 52 52 50 46 39 39 30
69 71 73 77 82 82 82 81 81 82 80 81 82 75 70 68 69 59 53 56 58 59 60 64 63 59 64 79 89 82 81 78 74 62 53 56 56 53 47 40 41 32 30
67 69 73 79 84 87 86 83 85 81 84 79 79 74 66 65 61 59 54 62 61 57 63 65 66 64 71 89 97 87 92 87 75 61 67 68 59 52 49 43 35 31 28
65 69 70 74 80 84 88 89 90 81 83 82 77 68 59 63 55 57 53 61 63 59 61 60 60 60 69 90 99 91 84 75 69 67 69 62 57 55 46 39 33 29 26
Wind_Direction_500mb
174 211 239 261 299 280 231 209 203 200 199 197 199 200 206 211 215 213 212 212 210 210 209 209 211 211 212 212 206 201 204 197 200 197 190 192 195 199 205 207 209 213 214
150 177 181 191 231 260 219 209 206 204 204 206 207 213 217 218 221 221 219 219 219 218 216 215 216 216 215 211 212 211 203 207 205 204 195 195 210 212 212 213 216 214 218
168 190 196 195 163 185 218 214 209 209 215 216 216 221 220 224 224 224 224 226 225 225 225 224 223 223 220 219 217 216 219 214 206 210 201 188 213 214 219 218 220 220 222
175 152 151 128 125 69 83 227 227 215 224 232 228 230 227 226 226 228 231 234 233 232 231 231 228 226 226 225 224 223 225 223 221 214 217 221 213 191 208 220 222 225 229
173 173 169 170 129 104 177 146 231 221 225 236 239 239 238 240 242 240 239 240 239 237 235 233 231 229 229 230 229 227 226 227 231 229 225 224 227 222 212 209 217 222 225
243 228 222 221 212 202 216 174 67 268 233 231 236 241 244 245 246 247 248 245 242 242 241 239 237 235 234 233 232 232 232 233 235 235 239 238 233 234 231 229 224 223 224
12 323 295 249 238 237 241 235 227 242 228 235 232 237 245 249 252 255 256 255 251 247 246 244 241 238 236 237 235 233 234 234 236 238 240 244 246 249 251 248 242 221 225
12 12 344 286 267 257 252 244 237 247 251 247 237 244 247 250 254 255 255 256 257 258 258 255 253 248 244 242 240 238 238 239 239 241 242 245 247 249 251 254 250 231 220
10 7 354 337 303 277 264 253 254 257 255 251 253 248 258 261 264 260 258 258 258 258 257 255 254 254 252 247 244 242 241 240 240 242 242 242 245 248 249 249 247 242 233
9 7 1 336 319 324 313 283 271 275 283 278 272 260 260 263 269 272 275 274 266 264 256 254 254 252 251 250 246 243 243 240 241 242 242 242 242 241 238 231 226 225 232
14 10 14 22 13 3 355 346 334 319 308 294 288 282 277 273 270 270 271 275 274 273 264 260 251 253 253 247 245 244 243 240 239 237 237 237 235 229 219 209 199 213 226
38 39 35 32 27 14 2 351 336 328 319 311 302 293 288 283 278 277 277 277 275 279 274 269 258 245 245 250 248 243 240 240 239 237 231 225 221 213 207 204 222 250 245
35 32 35 33 30 27 21 13 3 352 342 332 321 313 304 297 292 288 286 279 276 279 277 276 265 256 243 244 247 244 242 239 237 235 229 221 215 209 212 235 264 261 230
17 16 16 15 17 19 17 15 7 356 345 344 341 340 333 321 312 297 286 286 285 279 276 280 285 272 257 244 241 237 236 234 231 230 225 217 212 217 247 264 259 210 228
2 0 358 356 357 359 -0 359 357 356 350 342 336 333 334 328 316 313 296 289 282 282 283 282 275 279 263 251 245 234 232 230 226 225 221 220 225 250 255 250 202 214 226
353 348 345 344 340 338 336 333 330 329 329 327 326 321 317 316 317 309 296 288 284 279 280 278 280 273 267 260 258 246 231 230 228 224 217 222 234 244 250 207 199 222 234
345 340 338 335 332 330 329 326 321 317 311 309 306 305 306 307 308 305 300 288 282 282 282 284 279 276 268 265 260 251 233 231 226 222 223 221 241 241 200 188 211 225 229
339 337 335 332 330 326 325 322 316 312 310 305 300 300 301 298 297 296 295 293 281 275 277 273 273 274 270 267 257 248 236 227 223 220 227 242 238 205 190 194 213 219 224
335 336 335 334 330 327 323 320 315 311 307 304 300 294 292 292 292 291 292 289 283 274 273 275 275 275 267 265 253 242 227 218 219 227 235 228 208 190 192 203 216 215 223
341 341 339 338 338 335 328 321 316 312 307 303 297 292 288 285 285 286 285 283 283 277 273 270 268 270 268 262 246 245 232 218 219 220 220 211 190 186 203 213 213 218 222
346 346 344 337 341 341 336 327 321 316 311 301 294 291 287 286 283 281 279 278 279 275 272 269 266 264 262 257 241 244 233 223 217 211 205 188 183 196 208 213 216 220 226
350 349 347 346 346 346 341 331 328 325 318 311 301 294 289 286 287 282 276 274 271 272 267 265 263 262 256 248 233 240 234 224 212 208 191 186 191 196 206 215 214 219 233
353 350 349 347 348 346 344 338 333 332 323 317 306 299 291 286 288 282 273 268 267 268 263 257 259 256 245 228 221 227 223 209 210 194 190 184 189 194 200 214 215 230 239
353 347 349 348 349 349 347 345 341 337 331 324 316 300 287 287 292 282 269 263 263 262 262 256 251 247 232 213 205 212 209 196 183 181 177 184 189 197 207 208 217 230 237
346 347 347 347 348 349 349 349 345 341 336 331 325 309 289 283 295 284 274 265 261 262 264 260 253 245 226 213 208 203 190 186 182 179 182 185 190 198 202 208 218 225 235
341 344 346 346 348 349 348 350 349 345 342 338 332 321 299 286 290 288 282 270 262 260 260 258 256 251 236 212 201 197 189 185 177 183 188 186 196 201 205 212 220 227 233
Wind_Speed_850mb
16 30 32 17 20 28 47 58 51 48 42 45 48 52 53 48 44 42 39 38 40 41 43 42 45 45 48 47 48 48 45 43 41 39 35 32 30 29 27 27 25 23 22
14 17 14 14 10 32 67 61 55 46 43 43 45 47 45 45 42 41 43 43 43 42 45 45 48 49 51 52 53 54 55 51 50 49 43 29 34 38 37 35 29 27 25
21 19 26 33 24 16 33 51 52 51 43 43 44 45 45 44 47 51 50 47 47 46 47 46 48 50 53 57 57 59 59 59 59 55 37 21 24 43 47 44 39 36 30
28 19 23 42 35 27 6 34 38 47 44 44 48 50 52 52 52 51 48 46 48 50 50 49 50 51 54 58 59 60 62 61 60 62 61 33 17 24 23 50 46 41 37
27 27 25 32 16 23 17 11 9 42 49 53 52 53 55 53 50 48 47 47 49 51 52 52 52 55 56 57 60 64 64 64 65 66 65 66 40 27 21 22 49 53 48
8 15 18 22 19 14 15 18 4 22 49 57 58 56 55 54 53 53 52 51 52 53 53 54 55 55 56 58 60 61 65 67 68 68 68 67 64 58 44 36 32 48 52
16 10 17 23 28 30 26 29 30 19 42 42 57 57 60 57 55 56 55 55 55 57 57 56 58 60 60 60 61 65 68 70 72 70 70 67 66 63 54 48 40 39 49
33 22 15 20 31 39 37 37 45 37 33 36 53 51 58 61 59 59 60 60 62 60 55 56 57 58 60 61 63 66 67 68 70 71 69 68 69 65 61 56 51 40 46
39 35 27 20 20 24 33 49 52 51 45 42 46 57 52 48 48 55 62 66 68 66 64 61 62 59 59 61 64 65 69 68 67 67 67 65 66 67 62 54 48 46 41
40 39 34 25 15 17 16 19 27 31 32 37 43 44 51 55 56 60 60 68 73 70 70 70 69 68 65 64 69 66 71 69 68 69 67 65 63 58 52 44 38 34 24
51 43 45 37 24 22 19 18 19 21 23 30 38 47 52 53 56 61 62 61 64 72 73 77 77 74 74 71 73 68 74 71 69 71 67 63 61 59 53 45 34 22 27
60 58 55 50 44 34 29 26 21 22 26 30 35 41 45 51 53 56 60 59 62 65 68 75 73 77 75 74 76 76 76 71 71 69 66 65 63 57 52 43 45 49 51
69 68 65 62 58 53 48 42 37 32 27 26 29 31 37 45 48 51 59 62 62 64 67 68 70 75 78 71 73 76 73 69 70 70 70 67 66 59 50 40 53 60 27
71 72 71 69 65 58 53 49 43 40 40 37 36 36 33 33 36 43 44 45 51 56 62 60 57 62 71 76 83 80 74 72 68 68 66 67 63 51 51 74 61 31 33
81 78 77 73 65 60 55 54 50 49 49 48 48 47 43 40 38 37 40 45 47 49 53 51 52 53 65 69 77 80 77 78 75 76 72 70 64 70 79 63 39 32 42
78 81 82 79 79 76 70 60 50 48 49 52 51 52 51 49 45 42 40 41 44 45 48 52 51 51 56 64 69 78 85 84 82 87 86 79 81 79 65 51 32 38 40
68 80 83 83 85 86 83 78 73 66 59 53 51 53 56 56 54 51 47 45 43 43 48 50 56 57 55 54 57 71 84 86 89 93 87 84 81 62 62 39 40 45 43
79 80 81 86 83 83 84 83 82 80 73 67 63 58 52 53 54 56 53 52 49 46 47 54 55 58 59 57 62 71 80 87 92 90 88 80 67 65 50 47 47 47 40
72 71 73 76 80 80 82 84 85 82 80 77 72 67 63 60 59 59 57 55 54 49 49 53 54 57 59 63 65 71 82 91 94 84 74 68 70 51 44 42 47 40 37
63 71 74 74 74 77 78 80 83 83 83 78 78 72 68 67 67 65 62 59 57 54 49 50 55 56 60 60 64 73 80 95 90 78 73 68 56 45 46 49 46 45 36
69 69 71 64 78 78 75 76 79 82 82 85 85 81 74 69 66 66 65 63 59 53 51 53 52 56 58 61 69 75 83 94 90 83 73 64 54 53 49 49 46 37 35
71 77 82 82 82 80 78 79 82 83 82 82 83 81 75 69 68 63 62 64 61 56 50 53 54 54 58 61 75 82 83 89 91 79 75 68 61 53 51 48 41 40 38
67 67 73 81 84 82 82 85 80 76 78 81 82 82 69 69 68 60 58 60 59 57 56 58 55 56 58 64 84 88 80 88 78 83 71 59 52 52 50 46 39 39 30
69 71 73 77 82 82 82 81 81 82 80 81 82 75 70 68 69 59 53 56 58 59 60 64 63 59 64 79 89 82 81 78 74 62 53 56 56 53 47 40 41 32 30
67 69 73 79 84 87 86 83 85 81 84 79 79 74 66 65 61 59 54 62 61 57 63 65 66 64 71 89 97 87 92 87 75 61 67 68 59 52 49 43 35 31 28
65 69 70 74 80 84 88 89 90 81 83 82 77 68 59 63 55 57 53 61 63 59 61 60 60 60 69 90 99 91 84 75 69 67 69 62 57 55 46 39 33 29 26
Wind_Direction_850mb
174 211 239 261 299 280 231 209 203 200 199 197 199 200 206 211 215 213 212 212 210 210 209 209 211 211 212 212 206 201 204 197 200 197 190 192 195 199 205 207 209 213 214
150 177 181 191 231 260 219 209 206 204 204 206 207 213 217 218 221 221 219 219 219 218 216 215 216 216 215 211 212 211 203 207 205 204 195 195 210 212 212 213 216 214 218
168 190 196 195 163 185 218 214 209 209 215 216 216 221 220 224 224 224 224 226 225 225 225 224 223 223 220 219 217 216 219 214 206 210 201 188 213 214 219 218 220 220 222
175 152 151 128 125 69 83 227 227 215 224 232 228 230 227 226 226 228 231 234 233 232 231 231 228 226 226 225 224 223 225 223 221 214 217 221 213 191 208 220 222 225 229
173 173 169 170 129 104 177 146 231 221 225 236 239 239 238 240 242 240 239 240 239 237 235 233 231 229 229 230 229 227 226 227 231 229 225 224 227 222 212 209 217 222 225
243 228 222 221 212 202 216 174 67 268 233 231 236 241 244 245 246 247 248 245 242 242 241 239 237 235 234 233 232 232 232 233 235 235 239 238 233 234 231 229 224 223 224
12 323 295 249 238 237 241 235 227 242 228 235 232 237 245 249 252 255 256 255 251 247 246 244 241 238 236 237 235 233 234 234 236 238 240 244 246 249 251 248 242 221 225
12 12 344 286 267 257 252 244 237 247 251 247 237 244 247 250 254 255 255 256 257 258 258 255 253 248 244 242 240 238 238 239 239 241 242 245 247 249 251 254 250 231 220
10 7 354 337 303 277 264 253 254 257 255 251 253 248 258 261 264 260 258 258 258 258 257 255 254 254 252 247 244 242 241 240 240 242 242 242 245 248 249 249 247 242 233
9 7 1 336 319 324 313 283 271 275 283 278 272 260 260 263 269 272 275 274 266 264 256 254 254 252 251 250 246 243 243 240 241 242 242 242 242 241 238 231 226 225 232
14 10 14 22 13 3 355 346 334 319 308 294 288 282 277 273 270 270 271 275 274 273 264 260 251 253 253 247 245 244 243 240 239 237 237 237 235 229 219 209 199 213 226
38 39 35 32 27 14 2 351 336 328 319 311 302 293 288 283 278 277 277 277 275 279 274 269 258 245 245 250 248 243 240 240 239 237 231 225 221 213 207 204 222 250 245
35 32 35 33 30 27 21 13 3 352 342 332 321 313 304 297 292 288 286 279 276 279 277 276 265 256 243 244 247 244 242 239 237 235 229 221 215 209 212 235 264 261 230
17 16 16 15 17 19 17 15 7 356 345 344 341 340 333 321 312 297 286 286 285 279 276 280 285 272 257 244 241 237 236 234 231 230 225 217 212 217 247 264 259 210 228
2 0 358 356 357 359 -0 359 357 356 350 342 336 333 334 328 316 313 296 289 282 282 283 282 275 279 263 251 245 234 232 230 226 225 221 220 225 250 255 250 202 214 226
353 348 345 344 340 338 336 333 330 329 329 327 326 321 317 316 317 309 296 288 284 279 280 278 280 273 267 260 258 246 231 230 228 224 217 222 234 244 250 207 199 222 234
345 340 338 335 332 330 329 326 321 317 311 309 306 305 306 307 308 305 300 288 282 282 282 284 279 276 268 265 260 251 233 231 226 222 223 221 241 241 200 188 211 225 229
339 337 335 332 330 326 325 322 316 312 310 305 300 300 301 298 297 296 295 293 281 275 277 273 273 274 270 267 257 248 236 227 223 220 227 242 238 205 190 194 213 219 224
335 336 335 334 330 327 323 320 315 311 307 304 300 294 292 292 292 291 292 289 283 274 273 275 275 275 267 265 253 242 227 218 219 227 235 228 208 190 192 203 216 215 223
341 341 339 338 338 335 328 321 316 312 307 303 297 292 288 285 285 286 285 283 283 277 273 270 268 270 268 262 246 245 232 218 219 220 220 211 190 186 203 213 213 218 222
346 346 344 337 341 341 336 327 321 316 311 301 294 291 287 286 283 281 279 278 279 275 272 269 266 264 262 257 241 244 233 223 217 211 205 188 183 196 208 213 216 220 226
350 349 347 346 346 346 341 331 328 325 318 311 301 294 289 286 287 282 276 274 271 272 267 265 263 262 256 248 233 240 234 224 212 208 191 186 191 196 206 215 214 219 233
353 350 349 347 348 346 344 338 333 332 323 317 306 299 291 286 288 282 273 268 267 268 263 257 259 256 245 228 221 227 223 209 210 194 190 184 189 194 200 214 215 230 239
353 347 349 348 349 349 347 345 341 337 331 324 316 300 287 287 292 282 269 263 263 262 262 256 251 247 232 213 205 212 209 196 183 181 177 184 189 197 207 208 217 230 237
346 347 347 347 348 349 349 349 345 341 336 331 325 309 289 283 295 284 274 265 261 262 264 260 253 245 226 213 208 203 190 186 182 179 182 185 190 198 202 208 218 225 235
341 344 346 346 348 349 348 350 349 345 342 338 332 321 299 286 290 288 282 270 262 260 260 258 256 251 236 212 201 197 189 185 177 183 188 186 196 201 205 212 220 227 233